Regional Weather Roundup
Issued by NWS Mt. Holly, NJ

Home | Current Version | Previous Version | Text Only | Print | Product List | Glossary On
Versions: 1 2 3 4 5 6 7 8 9 10 11 12 13 14 15 16 17 18 19 20 21 22 23 24 25 26 27
000
ASUS41 KPHI 222210
RWRPHI

REGIONAL WEATHER ROUNDUP
NATIONAL WEATHER SERVICE MOUNT HOLLY NJ
600 PM EDT WED OCT 22 2014

NOTE:  "FAIR" INDICATES FEW OR NO CLOUDS BELOW 12,000 FEET WITH NO
SIGNIFICANT WEATHER AND/OR OBSTRUCTIONS TO VISIBILITY.

 * = STATION DOES NOT REPORT PRECIPITATION (E.G. RAIN, SNOW, ETC.)
        OR FOG.

NJZ015>026-222300-
SOUTHERN NEW JERSEY

CITY           SKY/WX    TMP DP  RH WIND       PRES   REMARKS
POMONA         CLOUDY    53  51  93 N15       29.77R
RIO GRANDE*    CLOUDY    54  48  82 N16G30    29.78S
MILLVILLE      CLOUDY    54  50  86 N16G24    29.81R
WRIGHTSTOWN    LGT RAIN  54  48  82 N21G26    29.79S
MOUNT HOLLY    LGT RAIN  54  49  83 N16       29.82F
TRENTON        LGT RAIN  53  48  83 N13       29.83F

$$
NJZ001>014-222300-
NORTHERN NEW JERSEY

CITY           SKY/WX    TMP DP  RH WIND       PRES   REMARKS
SUSSEX         RAIN      53  49  86 N7        29.89S FOG
ANDOVER*         N/A     51  49  92 VRB6      29.88F
MORRISTOWN     LGT RAIN  54  50  87 NE17G28   29.86S FOG
NEWARK         RAIN      53  49  86 N21G26    29.83F FOG
TETERBORO      RAIN      53  48  83 N12G22    29.83S HAZE
CALDWELL       RAIN      51  47  86 VRB7      29.85F FOG
SOMERVILLE     LGT RAIN  55  47  74 N8G20     29.84S
ALLAIRE*       CLOUDY    54  46  76 N18       29.79S
TOMS RIVER*    CLOUDY    54  50  87 N10G17    29.78F

$$
PAZ043-044-047-054-055-060>062-066>071-222300-
EASTERN PENNSYLVANIA

CITY           SKY/WX    TMP DP  RH WIND       PRES   REMARKS
PHILADELPHIA   LGT RAIN  55  50  83 N14       29.85R
NORTH PHILA    LGT RAIN  56  48  74 N16       29.85F
BLUE BELL      CLOUDY    54  52  94 CALM      29.85S
DOYLESTOWN     LGT RAIN  52  50  93 N13G24    29.85S
QUAKERTOWN*    CLOUDY    54  48  82 N13G20    29.88S
POTTSTOWN      CLOUDY    53  49  86 N12G20    29.89R
LANCASTER      CLOUDY    54  45  71 N18G28    29.92S
COATESVILLE    LGT RAIN  54  48  82 N13G23    29.89R
READING        LGT RAIN  56  46  69 N17       29.91R
ALLENTOWN      CLOUDY    55  45  67 N12G22    29.89S
MOUNT POCONO   CLOUDY    48  44  86 N13G22    29.90F
HAZLETON       DRIZZLE   46  45  93 NW15G23   29.97F
WILKES BARRE   LGT RAIN  52  46  80 N16G24    29.96F

$$
DEZALL-MDZ008-012-015-019-020-222300-
DELAWARE AND EASTERN MARYLAND

CITY           SKY/WX    TMP DP  RH WIND       PRES   REMARKS
WILMINGTON     CLOUDY    55  51  86 N17       29.86S
DOVER          LGT RAIN  54  54 100 NW16      29.81R
GEORGETOWN     LGT RAIN  55  51  86 N12G22    29.81R
PATUXENT       LGT RAIN  54  50  86 NW26G33   29.87R
OCEAN CITY     CLOUDY    55  52  89 N18G28    29.77R
WALLOPS ISLAND CLOUDY    57  51  80 N17G29    29.78R
CAMBRIDGE      CLOUDY    55  54  94 N18G26    29.84S VSB<1/4
SALISBURY      CLOUDY    58  51  78 N16G25    29.80R

$$
PAZ001-021-NYZ056-072-MDZ011-DCZ001-222300-
OTHER NEARBY LOCATIONS

CITY           SKY/WX    TMP DP  RH WIND       PRES   REMARKS
HARRISBURG     CLOUDY    54  44  69 N17G26    29.95S
STATE COLLEGE  CLOUDY    48  41  76 N14       30.06S
WILLIAMSPORT   CLOUDY    51  42  71 NW10      30.04S
BINGHAMTON     LGT RAIN  47  45  93 N14       30.03S FOG
NEW YORK CITY  RAIN      52  49  89 N9G21     29.85S FOG
BALTIMORE      LGT RAIN  54  47  77 NW15G21   29.90S
WASHINGTON DC  CLOUDY    57  49  74 NW13      29.93S

$$



USA.gov is the U.S. government's official web portal to all federal, state and local government web resources and services.